"Pseudo-MPEC" for C079JF2

Created 2019 Feb 13 3:19:06 UT using Find_Orb

Click here for an explanation of pseudo-MPECs

 
 Astrometry: 
     C079JF2  C2019 01 06]4pk^o^Ba'\]]wKgy18/mRtvX?#?`:iAstrometryRS8juyq16QHF51
     C079JF2  C2019 01 06`?Hl9Dredacted;KX!QQbEunx38M3c^#:akqw9MRFl_x=qnnw0l1F51
     C079JF2  C2019 01 06%sGPp`W`#-bUJ3Us6qg3[3x]-PH@,'9SXd95fT9CaUx1C-^Y$KF_F51
     C079JF2  C2019 01 06f[K4]jNs0\fSCAQ.d^clickmwrDU1CQXLOD.UJB8nJe%,QX)sd87F51
     C079JF2  C2019 01 10Ni0ZG\/EjpgWkBCxt[G@s8B2M;j:j3JJ4here-3YwR)cH0_kb3GCF51
     C079JF2  C2019 01 10%s;I`?stLa.$97BV_,;QnOR8c@c6^lkc@`3%`U,!c0:,J:mfEaowF51
     C079JF2  C2019 02 12.25407 09 44 54.11 +01 38 41.1    ~2C7I 20.5 GVNEOCPG96
     C079JF2  C2019 02 12.25967 09 44 53.73 +01 38 49.1    ~2C7I 20.8 GVNEOCPG96
     C079JF2  C2019 02 12.26526 09 44 53.34 +01 38 56.6    ~2C7I 20.8 GVNEOCPG96
     C079JF2  C2019 02 12.36642 09 44 46.89 +01 41 22.9    ~2C9I 20.8 GVNEOCPI52
     C079JF2  C2019 02 12.36809 09 44 46.79 +01 41 24.8    ~2C9I 20.4 GVNEOCPI52
     C079JF2  C2019 02 12.36975 09 44 46.70 +01 41 27.9    ~2C9I 20.7 GVNEOCPI52
     C079JF2  C2019 02 12.37141 09 44 46.59 +01 41 30.0    ~2C9I 20.1 GVNEOCPI52
     C079JF2 KC2019 02 12c:s)T,cYFr?H[)66gP]for-ODLR4xH7S1+Ln_22s3*8[@BQV2r`oL01
     C079JF2 IC2019 02 12J9naGYmMN,:`%MDrbd:9@2ZukIhMehQX\8Yo_-wFG]%N(w6FkOgqL01
     C079JF2 IC2019 02 124jWemW\bqC`=DwBexplanationrYt.e7G7SH]:ML(q)GtvX0_O-yL01

Station data:
(F51) Pan-STARRS 1, Haleakala  (N20.707235 W156.255910)  US/Hawaii.
   Observers N. Primak, A. Schultz, S. Watters, J. Thiel, T. Goggia. Measurer
   PS1 Science Consortium. 1.8-m Ritchey-Chrétien + CCD.
(G96) Mt. Lemmon Survey  (N32.442754 W110.788720)  US/Arizona.  Observers B.
   M. Africano, E. J. Christensen, G. A. Farneth, D. C. Fuls, A. R. Gibbs, A.
   D. Grauer, H. Groeller, J. A. Johnson, R. A. Kowalski, S. M. Larson, G. J.
   Leonard, R. L. Seaman, F. C. Shelly. 1.5-m reflector + 10K CCD.
(I52) Steward Observatory, Mt. Lemmon Station  (N32.442547 W110.788920)
   US/Arizona.  Observers B. M. Africano, E. J. Christensen, G. A. Farneth,
   D. C. Fuls, A. R. Gibbs, A. D. Grauer, H. Groeller, J. A. Johnson, R. A.
   Kowalski, S. M. Larson, G. J. Leonard, R. L. Seaman, F. C. Shelly. 1.0-m
   reflector + CCD.
(L01) Višnjan Observatory, Tičan  (N45.290900 E13.749300)  Croatia.
   Observers K. Korlević, E. Pettarin. Measurer E. Pettarin. 1.0-m f/2.9
   reflector + CCD.

Orbital elements:  C079JF2
   Perihelion 2018 Jun 5.901459 +/- 1.04 TT = 21:38:06 (JD 2458275.401459)
Epoch 2019 Feb 12.0 TT = JDT 2458526.5   Earth MOID: 0.8200   AutoNEOCP
M  95.69176315 +/- 0.40             (J2000 ecliptic)
n   0.38109246 +/- 6.72e-5          Peri.  244.53791 +/- 0.30
a   1.88415143 +/- 0.000221         Node   157.77973 +/- 0.010
e   0.0540293 +/- 0.000758          Incl.   23.79721 +/- 0.023
P   2.59/944.63d           H 19.2   G  0.15   U  6.3  
q 1.78235195 +/- 0.0014    Q 1.98595091 +/- 0.00149
From 16 observations 2019 Jan. 6-Feb. 12; mean residual 0".22
Residuals in arcseconds: 
190106 F51  .00   .08+    190212 G96  .35+  .31+    190212 I52  .08-  .02+    
190106 F51  .04+  .06+    190212 G96  .00   .24+    190212 L01  .19+  .11-    
190106 F51  .17+  .03+    190212 G96  .51-  .32-    190212 L01  .21+  .17-    
190106 F51  .05+  .20+    190212 I52  .36-  .12+    190212 L01  .41+  .02+    
190110 F51  .10-  .13-    190212 I52  .26-  .39-    
190110 F51  .10-  .18-    190212 I52  .02-  .32+    

Ephemerides (geocentric):
Date (UTC) HH   RA              Dec         delta   r     elong  mag " sig PA
---- -- -- --  -------------   -----------  ------ ------ -----  --- ---- ---
2019 02 13 03  09 44 01.096   +01 59 46.17  .92288 1.9004 168.4 20.9 .131 155
2019 02 13 04  09 43 58.569   +02 00 46.75  .92285 1.9004 168.5 20.9 .141 155
2019 02 13 05  09 43 56.042   +02 01 47.35  .92282 1.9004 168.5 20.9 .151 154
2019 02 13 06  09 43 53.515   +02 02 47.98  .92279 1.9005 168.5 20.9 .161 154
2019 02 13 07  09 43 50.987   +02 03 48.62  .92276 1.9005 168.5 20.9 .171 154
2019 02 13 08  09 43 48.459   +02 04 49.30  .92273 1.9005 168.6 20.9 .182 154
2019 02 13 09  09 43 45.932   +02 05 49.99  .92270 1.9005 168.6 20.9 .192 154
2019 02 13 10  09 43 43.404   +02 06 50.71  .92268 1.9006 168.6 20.9 .202 154
2019 02 13 11  09 43 40.876   +02 07 51.45  .92265 1.9006 168.7 20.9 .212 154
2019 02 13 12  09 43 38.348   +02 08 52.22  .92262 1.9006 168.7 20.9 .223 153
2019 02 13 13  09 43 35.819   +02 09 53.00  .92260 1.9007 168.7 20.9 .233 153
2019 02 13 14  09 43 33.291   +02 10 53.81  .92257 1.9007 168.7 20.9 .244 153
2019 02 13 15  09 43 30.763   +02 11 54.64  .92255 1.9007 168.8 20.9 .254 153
2019 02 13 16  09 43 28.234   +02 12 55.50  .92252 1.9007 168.8 20.9 .265 153
2019 02 13 17  09 43 25.706   +02 13 56.38  .92250 1.9008 168.8 20.9 .275 153
2019 02 13 18  09 43 23.177   +02 14 57.28  .92247 1.9008 168.9 20.9 .286 153
2019 02 13 19  09 43 20.649   +02 15 58.20  .92245 1.9008 168.9 20.9 .297 153
2019 02 13 20  09 43 18.120   +02 16 59.14  .92243 1.9009 168.9 20.9 .307 153
2019 02 13 21  09 43 15.592   +02 18 00.11  .92241 1.9009 168.9 20.9 .318 153
2019 02 13 22  09 43 13.063   +02 19 01.09  .92239 1.9009 169.0 20.9 .329 153
2019 02 13 23  09 43 10.535   +02 20 02.10  .92236 1.9009 169.0 20.9 .340 153
2019 02 14 00  09 43 08.006   +02 21 03.13  .92234 1.9010 169.0 20.9 .351 153
2019 02 14 01  09 43 05.477   +02 22 04.19  .92232 1.9010 169.0 20.9 .362 152
2019 02 14 02  09 43 02.949   +02 23 05.26  .92230 1.9010 169.1 20.9 .373 152
2019 02 14 03  09 43 00.420   +02 24 06.35  .92229 1.9010 169.1 20.9 .384 152
2019 02 14 04  09 42 57.892   +02 25 07.47  .92227 1.9011 169.1 20.9 .395 152
2019 02 14 05  09 42 55.363   +02 26 08.61  .92225 1.9011 169.1 20.9 .407 152
2019 02 14 06  09 42 52.835   +02 27 09.76  .92223 1.9011 169.2 20.9 .418 152
2019 02 14 07  09 42 50.307   +02 28 10.94  .92221 1.9012 169.2 20.9 .429 152
2019 02 14 08  09 42 47.778   +02 29 12.14  .92220 1.9012 169.2 20.9 .441 152
2019 02 14 09  09 42 45.250   +02 30 13.36  .92218 1.9012 169.2 20.9 .452 152
2019 02 14 10  09 42 42.722   +02 31 14.60  .92217 1.9012 169.2 20.9 .463 152
2019 02 14 11  09 42 40.194   +02 32 15.86  .92215 1.9013 169.3 20.9 .475 152
2019 02 14 12  09 42 37.666   +02 33 17.14  .92214 1.9013 169.3 20.9 .487 152
2019 02 14 13  09 42 35.138   +02 34 18.44  .92212 1.9013 169.3 20.9 .498 152
2019 02 14 14  09 42 32.610   +02 35 19.75  .92211 1.9013 169.3 20.9 .510 152
2019 02 14 15  09 42 30.083   +02 36 21.09  .92209 1.9014 169.4 20.9 .522 152
2019 02 14 16  09 42 27.555   +02 37 22.45  .92208 1.9014 169.4 20.9 .534 152
2019 02 14 17  09 42 25.028   +02 38 23.83  .92207 1.9014 169.4 20.9 .545 152
2019 02 14 18  09 42 22.501   +02 39 25.23  .92206 1.9015 169.4 20.9 .557 152
2019 02 14 19  09 42 19.974   +02 40 26.64  .92205 1.9015 169.4 20.9 .569 152
2019 02 14 20  09 42 17.447   +02 41 28.08  .92204 1.9015 169.5 20.9 .581 152
2019 02 14 21  09 42 14.920   +02 42 29.54  .92203 1.9015 169.5 20.9 .593 152
2019 02 14 22  09 42 12.394   +02 43 31.01  .92202 1.9016 169.5 20.9 .605 152
2019 02 14 23  09 42 09.867   +02 44 32.50  .92201 1.9016 169.5 20.9 .618 152
2019 02 15 00  09 42 07.341   +02 45 34.01  .92200 1.9016 169.5 20.9 .630 152
2019 02 15 01  09 42 04.815   +02 46 35.54  .92199 1.9017 169.6 20.9 .642 152
2019 02 15 02  09 42 02.290   +02 47 37.09  .92198 1.9017 169.6 20.9 .654 151